Regional Weather Roundup
Issued by NWS

Home | Current Version | Previous Version | Text Only | Print | Product List | Glossary On
Versions: 1 2 3 4 5 6 7 8 9 10 11 12 13 14 15 16 17 18 19 20 21 22 23 24 25 26 27 28 29 30 31 32 33 34 35 36 37 38 39 40 41 42 43 44 45 46 47 48 49 50
000
ASUS43 KLSX 101357
RWRMO

WEATHER SUMMARY FOR MISSOURI
NATIONAL WEATHER SERVICE SPRINGFIELD MO
800 AM CST WED FEB 10 2016

NOTE: "FAIR" INDICATES FEW OR NO CLOUDS BELOW 12,000 FEET WITH NO
       SIGNIFICANT WEATHER AND/OR OBSTRUCTIONS TO VISIBILITY.
       CURRENT SKY AND/OR WEATHER CONDITIONS ARE NOT AVAILABLE FOR
       CHILLICOTHE AND FARMINGTON.

MOZ001>031-035>038-043-044-053-054-101500-
...NORTHERN AND WESTERN MISSOURI...

CITY           SKY/WX    TMP DP  RH WIND       PRES   REMARKS
KANSAS CTY INT CLOUDY    25  15  66 S10       30.10F WCI  15
LEE`S SUMMIT   CLOUDY    26  14  60 SW10      30.13F WCI  16
ST JOSEPH      CLOUDY    26  16  65 S7        30.11F WCI  18
CHILLICOTHE      N/A     22  16  78 CALM      30.15F

$$
MOZ066>068-077>081-088>096-101>105-101500-
...SOUTHWEST MISSOURI...

CITY           SKY/WX    TMP DP  RH WIND       PRES   REMARKS
SPRINGFIELD    CLEAR     22  10  60 W3        30.19R
JOPLIN         MOCLDY    24  12  60 S12       30.18F WCI  13

$$
MOZ032>034-039>042-045>050-055>058-069>072-101500-
...CENTRAL MISSOURI...

CITY           SKY/WX    TMP DP  RH WIND       PRES   REMARKS
COLUMBIA       NOT AVBL
JEFFERSON CITY PTCLDY    16  10  77 SE3       30.20S
ROLLA          CLEAR     16   9  74 SW6       30.13S WCI   7
SEDALIA        CLOUDY    22  13  68 SW6       30.17F WCI  14

$$
MOZ051-052-059>065-101500-
...EAST CENTRAL MISSOURI...

CITY           SKY/WX    TMP DP  RH WIND       PRES   REMARKS
ST LOUIS INTL  PTSUNNY   17   6  62 NW14      30.18R WCI   3

$$
MOZ072>076-082>087-097>100-106>115-101500-
...SOUTH CENTRAL AND SOUTHEAST MISSOURI...

CITY           SKY/WX    TMP DP  RH WIND       PRES   REMARKS
CAPE GIRARDEAU SUNNY     18   8  65 W9        30.22S WCI   7
POPLAR BLUFF   SUNNY     21   8  57 VRB5      30.24R WCI  15
WEST PLAINS    CLEAR     20   8  60 SW7       30.18R WCI  11

$$


USA.gov is the U.S. government's official web portal to all federal, state and local government web resources and services.